OBJECT AD, 59125

Orbit data source: Space-Track

You're viewing an Uncataloged Satellite

Recently launched and/or uncataloged satellites may have evolving metadata. Metadata may include but not limited to: Owner, Maufacturer, Bus, Motor, and Mission.

OBJECT AD, 59125 is a satellite in SSO that was launched on Mon, 04 Mar 2024 UTC via an FALCON 9 launch vehicle from the Air Force Western Test Range (AFWTR). Unknown objects in Earth's orbit typically refer to objects detected orbiting the Earth but have not yet been identified or cataloged. These objects could be anything from previously untracked satellites, spent rocket stages, debris from satellite collisions, or even natural meteoroids temporarily captured by Earth's gravity.

Loading next visibility...
Identifier
59125, 2024-043AD
Orbit
SSO
Last TLE update
11 hours ago
Origin
Flag of TBDSPMACH (TBD)
Manufacturer
Space Machines
Mission
Operational Commercial Technology
Bus & Motor
OPTIMUS, Unknown motor
Mass
270 kg wet, 270 kg dry
Launch date (UTC)
2024-03-04 (1 year ago)
Launch vehicle
FALCON 9
Launch site
Air Force Western Test Range (AFWTR)
Object type
Unknown
Shape & HBR
Cyl + 1 Pan, 1.5 m
Radar Cross Section
2.062 m², Medium (>0.1 m² and < 1m²)

Expand to show TLE details & history

TLE from 11 hours ago
0 OBJECT AD
1 59125U 24043AD  25191.63643510  .00003761  00000-0  13941-3 0  9999
2 59125  97.5209 321.3855 0011007  13.5558 346.5974 15.28210488 74962
Epoch: 2025-07-10T15:16Z
TLE epoch observation values (Epoch: 2025-07-10T15:16:27.992Z)
Latitude
-0.00011°
Longitude
163.46901°
Altitude
476.914 km
Speed
7.631 km/s
True Right ascension
21h 25m 32s
True Declination
0° 00' 00"
Sunlit
Object was in full shadow at epoch
Visualization orbit readout
Latitude
80.18157°
Longitude
33.29582°
Altitude
493.797 km
Speed
7.625 km/s
Apparent Right ascension
03h 35m 44s
Apparent Declination
34° 00' 38"
Sunlit
Object is in daylight
Visualization observer readout
Local Sidereal Time
14:58:15
Azimuth
351.948° N
Elevation
-15.568°
Doppler factor
1
Orbital elements
Apogee altitude
485.668 km
Perigee altitude
470.575 km
Semi-major axis
6,856.259 km
Eccentricity
0.0011
Inclination
97.5209°
RAAN
321.3855°
Arg. of periapsis
13.5558°
True anomaly
Unknown
Mean anomaly
346.5974°
Eccentric anomaly
Unknown
Mean motion
3.82307 °/min
Orbital period
94.17 mins
BSTAR
0.00013941
Loading maneuver chart data...
Loading SW <> Apogee altitude chart data...
Loading historical data...
Loading historical data...
Loading historical data...
Loading historical data...
Loading historical data...
Loading historical data...
Loading historical data...

OBJECT AD Visibility forecast

Observer location: undefined°, undefined°

Span
Click to sort rows by Start time (UTC) header in descending order
Start Az.
Max El. time (UTC)
Max El. Az.
Max El.
End time (UTC)
End Az.
5 mins2025-07-11 08:41:39.653Z165.2° S2025-07-11 08:43:39.653Z159.141° S41.883°2025-07-11 08:46:39.653Z349.156° N
5 mins2025-07-11 21:42:39.653Z0.53° NNE2025-07-11 21:44:39.653Z246.958° WSW42.081°2025-07-11 21:47:39.653Z201.172° SSW
|